Regional Weather Roundup
Issued by NWS

Home | Current Version | Previous Version | Text Only | Print | Product List | Glossary On
Versions: 1 2 3 4 5 6 7 8 9 10 11 12 13 14 15 16 17 18 19 20 21 22 23 24 25 26 27 28 29 30 31 32 33 34 35 36 37 38 39 40 41 42 43 44 45 46 47 48 49 50
000
ASUS43 KFSD 251902
RWRSD

WEATHER ROUNDUP FOR SOUTH DAKOTA
NATIONAL WEATHER SERVICE SIOUX FALLS SD
100 PM CST SAT FEB 25 2017

NOTE: "FAIR" INDICATES FEW OR NO CLOUDS BELOW 12,000 FEET WITH NO
SIGNIFICANT WEATHER AND/OR OBSTRUCTIONS TO VISIBILITY.


SDZ001>005-009-010-012>017-252000-
NORTHWEST AND NORTH CENTRAL SOUTH DAKOTA

CITY           SKY/WX    TMP DP  RH WIND       PRES   REMARKS
BUFFALO          N/A     32  12  43 W20G28    29.73F WCI  20
FAITH            N/A     33  19  56 W16       29.80F WCI  23
MOBRIDGE       CLOUDY    38  20  48 W14       29.78F
$$

SDZ012>016-024>037-041>051-057-063-072>074-252000-
SOUTHWEST AND SOUTH CENTRAL SOUTH DAKOTA

CITY           SKY/WX    TMP DP  RH WIND       PRES   REMARKS
RAPID CTY ARPT MOSUNNY   33  15  47 N6        29.83F WCI  28
PIERRE         CLOUDY    36  20  52 SW9       29.84F
CUSTER         CLOUDY    21  13  71 W12G20    29.75S WCI   9
ELLSWORTH AFB  SUNNY     33  18  54 N13       29.81F WCI  24
PHILIP         CLOUDY    35  23  61 W15       29.86F WCI  25
PINE RIDGE     SUNNY     27  19  72 W15       29.89S WCI  15
SPEARFISH      FAIR      30  16  55 NW15      29.80F WCI  19
WINNER         FAIR      27  17  66 SW10      29.87F WCI  17
$$

SDZ004>011-016>023-039-040-252000-
NORTHEAST SOUTH DAKOTA

CITY           SKY/WX    TMP DP  RH WIND       PRES   REMARKS
ABERDEEN       MOSUNNY   37  17  44 SW13      29.85F
WATERTOWN      SUNNY     32  17  54 SW17      29.86F WCI  21
BROOKINGS      MOSUNNY   30  17  58 SW16      29.90F WCI  19
SISSETON         N/A     35  18  49 W15       29.84F WCI  25
$$

SDZ017-020-022-023-036>040-048>070-252000-
SOUTHEAST SOUTH DAKOTA

CITY           SKY/WX    TMP DP  RH WIND       PRES   REMARKS
SIOUX FALLS    CLOUDY    26  17  68 SW14G20   29.97F WCI  14
HURON          MOSUNNY   36  18  48 S12       29.89F
CHAMBERLAIN    SUNNY     35  20  55 SW7       29.88F WCI  29
MITCHELL       PTSUNNY   32  19  58 S14       29.93F WCI  22
YANKTON        MOSUNNY   28  12  50 S14       29.98F WCI  17
$$

ABBREVIATIONS USED IN REMARKS
   TC - TEMPERATURE IN CELSIUS
  WCI - WIND CHILL INDEX
   HX - HEAT INDEX
  VSB - VISIBILITY





USA.gov is the U.S. government's official web portal to all federal, state and local government web resources and services.